CW9540 Weather Reports


Display with metric or nautical units.
time (UTC)temp
F
wind
direction
speed
MPH
gust
MPH
rain 1hr
in
rain 24hr
in
rain mn
in
humidity
%
barometer
mb
20260502190504 48 22 2.0 3.0 0.00 0.04 0.00 54 1012.6
20260502190047 47 269 1.0 4.0 0.00 0.04 0.00 54 1013.2
20260502190004 47 336 1.0 3.0 0.00 0.04 0.00 54 1012.6
20260502185503 48 349 2.0 3.0 0.00 0.04 0.00 61 1012.7
20260502185003 48 5 3.0 5.0 0.00 0.04 0.00 50 1012.6
20260502184547 47 340 1.0 6.0 0.00 0.04 0.00 48 1013.2
20260502184503 48 103 1.0 6.0 0.00 0.04 0.00 48 1012.6
20260502183503 48 16 1.0 6.0 0.00 0.04 0.00 48 1012.6
20260502183047 48 13 3.0 10.0 0.00 0.04 0.00 47 1013.2
20260502182504 48 269 3.0 9.0 0.00 0.04 0.00 46 1012.6
20260502182004 49 260 4.0 8.0 0.00 0.04 0.00 45 1012.5
20260502181604 49 226 3.0 9.0 0.00 0.04 0.00 47 1013.1
20260502181504 50 195 3.0 9.0 0.00 0.04 0.00 47 1012.5
20260502181004 49 349 2.0 6.0 0.00 0.04 0.00 47 1012.4
20260502180503 49 352 4.0 10.0 0.00 0.04 0.00 46 1012.3
20260502170504 50 223 6.0 12.0 0.00 0.04 0.00 42 1012.3
20260502164004 48 333 4.0 10.0 0.00 0.04 0.00 44 1012.5
20260502163503 49 272 3.0 9.0 0.00 0.04 0.00 46 1012.6
20260502163050 48 284 3.0 9.0 0.00 0.04 0.00 47 1013.2
20260502163004 48 353 3.0 8.0 0.00 0.04 0.00 49 1012.6
20260502162504 48 321 3.0 7.0 0.00 0.04 0.00 46 1012.6
20260502162003 48 312 3.0 8.0 0.00 0.04 0.00 48 1012.6
20260502161553 47 310 3.0 10.0 0.00 0.04 0.00 45 1013.2
20260502161004 48 248 5.0 10.0 0.00 0.04 0.00 47 1012.6
20260502160503 47 352 6.0 12.0 0.00 0.04 0.00 46 1012.6
20260502152003 48 235 6.0 12.0 0.00 0.04 0.00 51 1012.7
20260502151601 47 284 4.0 11.0 0.00 0.04 0.00 50 1013.4
20260502151503 48 225 5.0 8.0 0.00 0.04 0.00 51 1012.9
20260502151004 47 232 6.0 12.0 0.00 0.04 0.00 52 1012.9
20260502150504 47 304 3.0 8.0 0.00 0.04 0.00 53 1012.8
20260502123504 41 291 3.0 7.0 0.00 0.04 0.00 77 1013.8
20260502123056 40 264 2.0 8.0 0.00 0.04 0.00 77 1014.4
20260502123004 41 231 2.0 8.0 0.00 0.04 0.00 77 1013.8
20260502122503 40 242 2.0 8.0 0.00 0.04 0.00 79 1013.7
20260502121556 39 305 3.0 7.0 0.00 0.04 0.00 77 1014.3
20260502121504 40 267 2.0 7.0 0.00 0.04 0.00 78 1013.8
20260502121004 40 280 3.0 7.0 0.00 0.04 0.00 79 1013.8
20260502120503 39 234 3.0 8.0 0.00 0.04 0.00 80 1013.8
20260502120105 39 212 2.0 6.0 0.00 0.04 0.00 79 1014.4
20260502115505 39 248 4.0 6.0 0.00 0.04 0.00 81 1013.9
20260502115004 39 214 2.0 7.0 0.00 0.04 0.00 82 1013.9
20260502114554 38 202 2.0 10.0 0.00 0.04 0.00 82 1014.4
20260502114004 39 240 6.0 10.0 0.00 0.04 0.00 81 1013.8
20260502113052 38 206 3.0 7.0 0.00 0.04 0.00 83 1014.3
20260502113004 38 256 4.0 7.0 0.00 0.04 0.00 83 1013.7
20260502112504 38 236 2.0 6.0 0.00 0.04 0.00 83 1013.7
20260502112004 38 235 3.0 6.0 0.00 0.04 0.00 84 1013.6
20260502111555 37 230 3.0 8.0 0.00 0.04 0.00 84 1014.2
20260502111004 38 232 2.0 3.0 0.00 0.04 0.00 86 1013.5
20260502110503 37 229 3.0 6.0 0.00 0.04 0.00 86 1013.5
20260502110059 37 236 1.0 4.0 0.00 0.04 0.00 86 1014.2
20260502110004 37 217 1.0 3.0 0.00 0.04 0.00 87 1013.5
20260502105503 37 245 2.0 3.0 0.00 0.04 0.00 87 1013.5
20260502105004 37 249 1.0 3.0 0.00 0.04 0.00 87 1013.3
20260502104550 36 250 1.0 5.0 0.00 0.04 0.00 87 1014.0
20260502104504 37 218 2.0 3.0 0.00 0.04 0.00 87 1013.3
20260502103503 37 221 2.0 3.0 0.00 0.04 0.00 87 1013.2
20260502103050 36 206 1.0 3.0 0.00 0.04 0.00 86 1013.8
20260502103004 37 208 1.0 3.0 0.00 0.04 0.00 86 1013.1
20260502102504 37 234 1.0 2.0 0.00 0.04 0.00 86 1013.0
20260502102003 37 207 2.0 3.0 0.00 0.04 0.00 86 1013.0
20260502101553 37 227 2.0 3.0 0.00 0.04 0.00 85 1013.7
20260502101503 37 208 2.0 3.0 0.00 0.04 0.00 86 1013.1
20260502101003 37 218 1.0 3.0 0.00 0.04 0.00 86 1013.0
20260502100504 37 240 1.0 3.0 0.00 0.04 0.00 85 1012.9
20260502091504 38 248 1.0 3.0 0.00 0.04 0.00 86 1012.6
20260502091003 38 257 2.0 5.0 0.00 0.04 0.00 86 1012.6
20260502090504 38 213 1.0 3.0 0.00 0.04 0.00 85 1012.5
20260502080106 40 308 0.0 3.0 0.00 0.04 0.00 83 1012.3
20260502070139 40 197 0.0 3.0 0.00 0.04 0.00 92 1012.1
20260502064557 41 223 0.0 2.0 0.00 0.04 0.00 92 1012.2
20260502063053 41 223 0.0 2.0 0.00 0.04 0.00 92 1012.1
20260502061551 41 223 0.0 1.0 0.00 0.04 0.00 92 1012.2
20260502060049 41 0 0.0 2.0 0.00 0.04 0.00 92 1012.3
20260502055004 41 182 1.0 1.0 0.00 0.04 0.00 92 1011.6
20260502054557 41 161 0.0 2.0 0.00 0.04 0.00 91 1012.3
20260502053049 41 206 1.0 2.0 0.00 0.04 0.00 92 1012.3
20260502051549 42 0 0.0 3.0 0.00 0.04 0.00 93 1012.3
20260502050050 42 190 1.0 3.0 0.00 0.04 0.00 93 1012.4
20260502044549 42 223 0.0 2.0 0.00 0.04 0.00 93 1012.3
20260502043052 42 0 0.0 4.0 0.00 0.04 0.00 93 1012.3
20260502041549 41 234 0.0 2.0 0.00 0.04 0.00 93 1012.3
20260502040058 41 178 1.0 2.0 0.00 0.04 0.00 93 1012.3
20260502034554 41 223 0.0 2.0 0.00 0.04 0.04 93 1012.3
20260502033050 41 0 0.0 1.0 0.00 0.04 0.04 92 1012.2
20260502031609 42 0 0.0 1.0 0.00 0.04 0.04 93 1012.2
20260502030051 42 0 0.0 2.0 0.01 0.04 0.04 92 1012.2
20260502024545 42 250 0.0 2.0 0.01 0.04 0.04 92 1012.2
20260502023053 42 223 1.0 2.0 0.01 0.04 0.04 92 1012.2
20260502021559 42 213 0.0 2.0 0.01 0.04 0.04 92 1012.3
20260502020105 42 206 0.0 2.0 0.00 0.03 0.03 91 1012.3
20260502014552 42 0 0.0 1.0 0.00 0.03 0.03 91 1012.2
20260502013050 42 0 0.0 1.0 0.00 0.03 0.03 90 1012.1
20260502012004 43 196 1.0 1.0 0.00 0.03 0.03 91 1011.4
20260502011551 42 161 0.0 2.0 0.00 0.03 0.03 90 1011.9
20260502010049 43 0 0.0 1.0 0.00 0.03 0.03 90 1011.7
20260502010004 43 37 0.0 1.0 0.00 0.03 0.03 90 1011.1
20260502004553 43 0 0.0 1.0 0.00 0.03 0.03 90 1011.6
20260502003107 43 0 0.0 1.0 0.00 0.03 0.03 89 1011.4
20260502001623 43 0 0.0 2.0 0.00 0.03 0.03 88 1011.3
20260502000051 43 0 0.0 2.0 0.00 0.03 0.03 88 1011.2
20260501234547 44 0 0.0 2.0 0.00 0.03 0.03 88 1011.0
20260501233047 44 0 0.0 2.0 0.00 0.03 0.03 88 1011.0
20260501233004 44 72 1.0 2.0 0.00 0.03 0.03 89 1010.2
20260501231550 44 0 0.0 1.0 0.01 0.03 0.03 89 1011.2
20260501231004 44 92 0.0 1.0 0.01 0.03 0.03 89 1010.4
20260501230046 44 344 0.0 2.0 0.01 0.03 0.03 88 1011.2
20260501224559 43 0 0.0 2.0 0.01 0.03 0.03 88 1011.3
20260501223050 43 296 0.0 2.0 0.02 0.03 0.03 87 1011.3
20260501222004 44 3 1.0 2.0 0.01 0.02 0.02 87 1010.5
20260501221547 43 1 0.0 2.0 0.01 0.02 0.02 86 1011.3
20260501220051 43 28 0.0 2.0 0.01 0.02 0.02 85 1011.4
20260501214557 43 0 0.0 2.0 0.02 0.02 0.02 84 1011.3
20260501213056 43 81 1.0 2.0 0.01 0.01 0.01 82 1011.2
20260501211551 44 324 1.0 3.0 0.01 0.01 0.01 82 1011.2
20260501210057 44 39 1.0 3.0 0.01 0.01 0.01 79 1011.2
20260501204550 44 344 1.0 4.0 0.00 0.00 0.00 77 1011.1
20260501203049 45 28 2.0 5.0 0.00 0.00 0.00 76 1011.0
20260501201546 45 321 2.0 6.0 0.00 0.00 0.00 72 1011.0
20260501200049 47 11 1.0 3.0 0.00 0.00 0.00 75 1011.0
20260501194551 47 51 1.0 5.0 0.00 0.00 0.00 76 1011.1
20260501193048 47 28 1.0 2.0 0.00 0.00 0.00 75 1011.3
20260501191549 46 286 0.0 4.0 0.00 0.00 0.00 75 1011.3